Location: ??????
(36.0418°N, 43.6351°E)
Time: 02:32:33
(UTC+00:00)

Cosmos 1386 Rocket - Pass Details

Date: 07 March 2021
Orbit: 929 x 1006 km, 83.0° (Epoch: 22 April)

Event Time Altitude Azimuth Distance (km) Brightness Sun altitude
Rises 01:16:36 0° 349° (N) 3,737 7.6 -27.1°
Reaches altitude 10° 01:19:11 10° 347° (NNW) 2,778 6.9 -26.6°
Maximum altitude 01:25:27 63° 268° (W) 1,100 4.4 -25.4°
Enters shadow 01:28:08 35° 201° (SSW) 1,542 5.2 -24.9°
Exits shadow 01:30:27 16° 191° (S) 2,297 6.2 -24.4°
Drops below altitude 10° 01:31:37 10° 188° (S) 2,720 6.6 -24.2°
Sets 01:34:07 0° 185° (S) 3,653 7.3 -23.7°
